Wetbulb
75.57 75.15 74.52 66.67 55.22 54.73 53.09 55.69 60.15 59.28 59.51 63.03 65.11 62.70 60.48 61.79 58.31 52.72 69.28 70.74 72.47 73.15 74.68 75.95 77.66 77.36 76.81 77.05 76.99 77.22 76.78 75.86 75.80 76.28 76.31 76.66 77.20 76.79 76.79 76.57 77.12 76.36 76.45 76.86 76.36 76.34 76.15 76.23 76.23
73.53 73.53 68.59 61.79 52.94 48.83 51.95 58.05 57.53 60.98 62.62 64.20 64.43 63.61 61.32 59.48 65.74 67.40 67.92 71.28 72.86 73.33 73.99 74.70 77.30 77.37 76.81 76.77 77.07 77.31 76.35 76.58 76.15 76.34 75.62 75.70 76.51 76.78 76.54 76.87 76.64 76.75 76.14 76.31 76.19 75.65 75.60 76.11 75.80
70.06 72.47 60.84 56.63 54.51 50.61 51.33 58.37 59.45 62.67 64.28 64.98 62.96 65.26 63.28 60.92 66.94 67.49 69.80 71.79 72.81 72.78 73.70 74.60 77.24 77.16 76.69 76.30 76.41 76.54 76.22 76.40 76.14 76.25 76.99 76.86 75.70 75.65 75.77 75.52 75.97 76.29 75.84 75.74 75.52 75.74 76.11 75.59 75.53
70.94 66.57 63.81 55.86 52.36 55.09 56.14 58.94 61.04 61.46 63.87 64.91 64.30 60.98 64.98 66.69 66.81 69.10 71.53 72.37 71.55 72.37 73.73 75.94 76.93 77.07 77.14 77.07 76.62 76.32 76.31 76.14 76.25 76.46 76.61 76.99 76.77 76.78 76.70 76.35 76.55 75.99 76.02 76.20 76.22 75.88 75.03 74.60 74.36
69.92 65.64 55.64 54.61 55.01 57.83 59.76 60.98 61.65 61.49 62.71 63.19 64.03 60.77 62.22 67.76 69.88 71.03 71.26 71.85 71.25 71.69 73.87 75.08 77.24 76.79 76.53 76.31 76.27 76.14 76.22 76.36 76.39 76.42 76.81 76.51 76.80 76.69 76.72 76.45 76.50 76.13 75.84 75.92 75.47 75.53 74.98 74.53 74.19
63.10 62.68 53.69 52.22 55.63 59.24 61.47 63.06 63.12 62.18 63.09 63.24 62.19 61.22 62.27 68.74 69.00 69.93 71.38 71.25 72.37 72.71 73.42 74.58 76.45 76.45 76.49 76.09 75.68 75.78 75.72 76.28 76.12 76.26 76.07 76.08 76.11 76.58 76.27 75.62 76.00 75.94 75.97 75.75 75.47 75.29 74.65 74.87 74.85
61.71 58.01 53.96 55.22 55.76 57.53 60.29 63.71 61.86 62.19 62.11 61.68 64.25 59.52 63.61 67.29 69.83 71.10 71.10 71.66 72.20 73.10 72.90 72.99 73.62 74.83 76.03 75.67 75.57 75.30 75.10 75.50 75.64 75.39 75.99 76.02 75.40 74.99 75.24 75.26 75.05 75.60 76.23 75.82 75.41 75.26 74.89 73.54 74.63
64.14 59.57 55.78 56.46 55.56 56.39 61.55 62.32 63.91 62.96 61.84 66.11 65.75 59.60 60.41 65.97 70.26 70.42 69.96 69.98 71.65 72.50 72.09 71.76 71.86 72.88 71.48 72.02 74.97 74.91 74.03 74.32 75.21 75.45 75.73 75.47 76.20 76.10 75.11 74.98 74.83 75.14 75.47 75.41 75.19 75.16 74.87 74.68 74.22
67.15 54.52 52.52 55.98 55.70 57.59 62.04 61.44 65.65 66.79 63.41 64.71 65.27 63.99 65.71 68.75 69.71 69.05 68.24 68.08 70.09 70.51 70.21 70.65 70.82 71.42 70.57 71.36 72.80 74.11 74.43 74.39 74.65 74.88 76.13 74.50 72.34 72.23 73.66 75.30 75.61 74.94 74.78 74.77 75.22 75.16 75.00 73.95 74.22
60.12 54.24 56.72 61.46 59.48 59.16 61.46 62.58 64.33 62.99 62.26 62.19 63.30 66.41 68.26 68.83 68.23 66.98 66.35 66.10 68.26 68.22 68.84 70.24 69.81 70.14 70.43 72.83 70.57 70.83 72.60 71.17 69.89 69.54 69.94 72.16 72.04 71.78 74.53 75.10 76.19 76.16 76.10 76.81 75.23 74.32 74.40 73.08 72.04
62.26 57.79 61.97 61.85 61.20 62.37 62.18 62.32 64.94 62.00 60.11 61.92 61.59 64.10 66.65 67.22 67.07 66.79 66.47 66.57 68.26 68.53 68.66 69.66 69.38 70.10 69.46 70.35 70.07 70.47 70.89 70.09 69.05 68.76 70.21 70.38 72.69 70.76 70.89 70.75 73.18 70.35 73.48 71.83 71.87 71.02 70.82 70.38 69.83
60.16 64.04 63.87 62.96 63.07 62.97 62.01 63.63 62.52 63.66 63.50 65.14 65.07 65.89 65.97 65.97 66.06 66.20 66.45 67.11 67.65 68.01 68.38 69.10 69.12 68.73 68.41 69.22 69.52 70.12 69.93 68.96 68.91 69.55 69.78 70.19 70.36 70.44 70.10 71.13 68.86 67.61 69.12 68.86 69.51 70.83 70.53 70.52 70.72
60.41 61.68 61.88 61.49 62.81 62.84 63.21 62.55 62.45 63.00 66.14 66.32 66.19 65.96 65.29 65.16 65.37 66.03 67.20 66.99 67.74 67.67 68.76 68.78 68.39 67.70 67.93 68.66 68.45 67.62 68.78 69.90 69.88 70.52 70.58 70.29 70.42 69.70 69.86 71.34 69.19 67.04 68.12 69.42 69.07 69.81 68.86 69.74 70.14
62.17 61.64 61.88 62.11 60.18 63.21 61.38 61.53 62.10 62.96 66.07 65.08 64.93 64.31 64.94 64.90 65.22 64.65 65.60 66.16 67.35 68.57 68.61 68.61 68.16 67.74 67.67 66.97 67.87 66.68 67.16 68.70 68.68 68.86 69.00 69.74 70.46 69.90 69.85 69.90 70.62 70.38 68.67 69.50 69.94 70.04 70.08 69.91 70.54
61.48 57.94 60.59 61.58 61.41 61.14 62.26 58.70 60.18 63.41 65.14 63.98 63.98 64.29 64.80 65.08 65.75 64.68 65.76 66.30 67.70 68.51 69.06 68.28 68.27 67.49 66.77 66.73 67.57 67.56 68.36 69.31 69.41 69.88 69.94 69.76 70.87 70.66 70.68 70.10 70.34 69.21 69.05 69.36 70.48 70.98 70.84 70.15 69.02
56.54 57.88 54.12 60.46 61.19 62.54 60.67 53.30 59.51 63.59 63.15 62.97 64.03 64.26 64.71 64.79 65.27 65.59 66.24 66.41 67.49 68.22 68.08 68.76 70.07 67.74 66.89 66.61 67.76 69.99 69.16 69.15 69.38 69.80 70.82 70.97 72.06 71.56 71.37 71.16 71.02 70.83 69.72 69.12 69.09 68.78 69.75 69.73 68.13
55.07 49.44 53.46 56.51 61.69 60.31 58.36 53.50 59.55 62.73 61.15 61.86 62.77 63.63 64.20 63.93 64.17 65.08 66.74 67.22 67.55 67.95 67.59 68.19 68.47 68.30 67.76 67.82 68.67 69.72 67.48 69.91 69.37 69.76 70.37 71.15 72.43 72.03 70.94 71.09 71.60 70.85 69.57 69.28 68.84 68.53 69.18 69.16 70.22
48.68 50.43 53.58 54.19 58.81 59.56 56.54 55.23 57.93 60.11 60.52 60.51 61.52 62.26 63.16 62.90 63.62 65.42 66.96 67.86 67.94 67.69 67.85 68.20 68.03 68.09 68.18 68.06 68.54 70.57 70.10 69.91 71.13 70.69 70.10 70.74 71.39 71.50 69.87 69.60 70.86 70.52 70.26 69.16 68.60 67.95 68.40 68.89 69.14
54.62 50.86 52.93 57.92 61.13 57.95 55.83 55.53 57.08 58.95 60.44 60.04 60.52 61.29 61.46 62.93 65.71 66.18 66.94 67.70 67.94 67.73 67.25 67.40 67.52 66.48 66.62 67.16 67.83 67.62 67.77 68.97 68.90 69.55 70.67 71.21 71.44 71.69 69.12 69.59 71.11 70.41 69.36 67.49 66.13 68.73 67.52 67.56 66.19
53.52 52.16 52.25 56.16 60.65 57.82 56.99 55.91 58.89 59.56 58.62 59.79 60.97 60.53 61.10 62.00 63.77 65.45 66.19 66.85 67.17 67.34 67.19 66.69 67.24 65.94 66.95 67.33 67.02 68.03 68.67 70.69 71.57 70.29 71.74 71.29 71.77 71.90 70.24 70.63 70.97 70.86 70.30 69.26 69.35 68.91 62.67 64.21 65.92
52.56 51.40 51.83 52.64 57.34 57.12 55.02 51.74 54.88 57.83 60.17 60.73 62.15 63.50 62.00 62.48 62.74 64.03 64.90 66.14 66.53 66.81 66.91 66.85 66.98 66.05 67.38 67.00 67.23 67.99 69.47 67.47 67.44 68.75 70.54 71.53 72.19 71.40 70.83 71.71 71.46 70.79 68.53 67.18 66.93 67.64 66.09 63.96 67.56
48.33 56.15 56.58 55.36 53.65 48.05 54.68 43.98 49.96 53.76 56.13 58.66 60.38 62.18 60.83 62.36 63.76 64.25 64.39 64.98 65.75 66.71 67.78 67.16 66.44 66.42 67.19 66.81 66.24 66.45 66.82 65.95 66.40 66.44 68.75 70.49 71.46 71.91 72.26 72.39 71.37 70.46 68.64 63.60 67.96 71.09 69.04 65.82 65.31
51.50 57.21 55.63 57.01 52.03 49.45 50.15 47.59 49.25 53.26 52.63 56.18 59.46 62.15 62.37 62.78 63.49 63.59 64.32 65.34 66.11 66.96 67.18 67.25 65.73 65.80 67.11 66.57 66.38 66.18 66.87 67.20 65.77 66.86 66.48 67.32 68.61 70.90 71.80 72.24 71.61 71.07 69.92 69.26 67.08 66.34 68.84 68.93 67.00
55.92 51.89 48.65 52.34 48.63 43.52 48.10 48.34 47.17 49.31 52.37 54.95 59.09 61.70 62.84 61.90 63.43 64.21 65.11 65.62 65.49 66.39 66.92 67.21 65.57 65.72 65.90 66.07 66.87 66.64 67.83 68.39 66.96 65.93 67.92 68.65 68.60 70.59 71.75 72.00 70.68 70.13 68.25 68.27 69.97 67.34 69.72 68.90 68.61
49.70 40.53 36.82 35.71 39.31 40.07 46.02 46.95 47.67 53.27 55.37 57.06 58.75 60.73 62.47 62.76 62.47 63.34 63.64 64.00 63.74 65.03 66.09 66.67 65.71 65.29 65.30 65.39 65.77 66.91 68.11 69.19 68.43 68.15 67.75 68.33 69.11 70.01 70.03 71.18 71.26 69.16 68.32 66.77 65.70 68.60 70.17 70.30 69.95
42.97 40.82 36.41 33.63 36.54 38.35 47.51 44.72 48.83 56.49 57.69 58.61 60.82 62.04 62.82 62.92 62.70 63.19 64.07 64.43 64.12 64.39 65.21 66.85 66.06 65.48 65.08 65.74 65.93 66.08 67.46 69.22 69.67 69.30 69.06 68.66 69.00 69.59 69.86 70.92 71.72 71.29 69.87 67.07 67.75 69.94 70.82 69.61 70.54
42.59 40.58 41.83 38.34 37.12 39.16 43.89 49.00 54.33 56.74 56.45 56.46 56.98 60.01 60.72 62.46 63.39 62.72 64.28 64.74 63.96 63.73 63.43 65.73 66.45 66.54 66.55 66.34 66.50 67.28 67.76 68.83 69.40 69.41 69.18 69.39 69.14 69.26 69.14 70.10 71.54 71.54 71.17 70.19 68.89 70.71 69.73 70.21 69.87
45.42 45.43 38.71 36.86 35.11 35.26 41.47 44.77 46.61 51.70 54.79 56.75 56.59 56.91 59.97 61.55 63.28 63.75 62.56 63.65 64.01 64.00 63.99 65.59 65.98 65.87 67.26 68.25 67.62 68.05 68.65 69.12 69.86 69.78 69.20 69.49 69.55 68.86 68.63 69.30 70.45 70.57 71.14 71.41 71.02 70.93 69.95 69.95 69.89
42.63 40.34 39.47 39.02 38.58 37.08 36.80 42.11 51.85 53.26 55.02 56.48 57.82 58.70 59.22 60.56 62.11 63.72 64.52 63.71 63.96 64.18 64.34 65.20 65.58 65.04 65.84 66.81 67.83 67.39 68.62 69.18 69.40 69.82 69.78 69.85 69.60 69.19 68.21 68.88 67.96 68.94 69.32 70.43 70.57 70.57 70.35 69.64 69.12
44.37 42.09 40.36 38.22 36.01 38.24 39.32 41.80 52.75 53.86 56.40 58.23 58.67 59.84 59.40 61.45 62.72 63.88 64.55 64.45 63.42 63.52 63.90 64.52 65.46 65.88 66.47 66.78 66.93 66.83 67.40 69.32 69.49 70.03 70.25 70.30 69.07 68.97 68.02 67.96 66.84 65.80 69.82 70.34 70.55 69.42 71.08 69.06 69.02
MSLP
1009.60 1009.69 1009.88 1010.33 1011.30 1011.66 1011.59 1011.35 1010.54 1009.72 1009.55 1009.19 1009.05 1009.71 1010.60 1011.18 1011.60 1012.53 1012.00 1012.23 1012.57 1013.14 1013.36 1013.58 1013.79 1014.10 1014.36 1014.51 1014.66 1014.76 1014.99 1015.19 1015.24 1015.35 1015.33 1015.44 1015.49 1015.58 1015.71 1015.87 1015.98 1016.07 1016.15 1016.22 1016.40 1016.33 1016.36 1016.59 1016.74
1009.60 1009.70 1010.12 1010.76 1011.69 1012.22 1012.17 1011.54 1010.88 1009.53 1009.54 1009.32 1009.35 1009.92 1010.61 1011.33 1011.66 1012.10 1012.40 1012.64 1012.63 1013.17 1013.53 1013.76 1014.01 1014.27 1014.45 1014.68 1014.81 1014.96 1015.13 1015.36 1015.55 1015.61 1015.58 1015.61 1015.71 1015.82 1015.96 1016.03 1016.17 1016.23 1016.33 1016.44 1016.34 1016.34 1016.62 1016.72 1016.90
1009.48 1009.52 1010.72 1011.74 1012.47 1012.30 1011.82 1011.48 1011.33 1010.58 1010.12 1009.47 1009.60 1009.93 1010.52 1011.49 1012.00 1012.30 1012.28 1012.81 1013.15 1013.66 1013.84 1013.97 1014.06 1014.35 1014.49 1014.80 1015.08 1015.19 1015.37 1015.63 1015.70 1015.73 1015.70 1015.69 1015.86 1016.00 1016.20 1016.30 1016.29 1016.47 1016.51 1016.54 1016.59 1016.67 1016.76 1017.00 1017.12
1009.68 1010.49 1011.68 1012.32 1012.43 1012.26 1011.86 1011.63 1011.49 1011.05 1010.34 1009.94 1009.88 1010.33 1010.67 1010.97 1011.65 1012.04 1012.55 1013.08 1013.57 1014.00 1014.03 1014.05 1014.21 1014.43 1014.64 1014.84 1015.20 1015.40 1015.60 1015.74 1015.74 1015.80 1015.74 1015.70 1015.83 1016.03 1016.30 1016.48 1016.45 1016.56 1016.81 1016.79 1016.77 1016.95 1016.95 1017.07 1017.20
1010.13 1010.94 1012.13 1012.79 1012.86 1012.23 1011.95 1011.47 1011.51 1011.04 1010.69 1010.28 1010.01 1010.78 1011.39 1011.72 1011.47 1012.16 1012.75 1013.39 1013.83 1014.20 1014.17 1014.17 1014.34 1014.70 1014.93 1015.04 1015.32 1015.58 1015.78 1015.87 1015.83 1015.83 1015.72 1015.78 1015.97 1016.10 1016.38 1016.69 1016.67 1016.69 1017.00 1017.18 1017.22 1017.40 1017.45 1017.38 1017.34
1010.61 1011.28 1012.31 1012.75 1013.03 1012.59 1012.02 1011.29 1011.11 1010.68 1010.27 1010.30 1010.36 1010.93 1012.16 1012.20 1011.83 1012.63 1013.03 1013.47 1013.80 1014.15 1014.24 1014.44 1014.59 1014.86 1015.13 1015.33 1015.57 1015.75 1015.93 1015.97 1015.94 1015.91 1015.98 1016.19 1016.27 1016.45 1016.59 1016.70 1016.66 1016.74 1016.85 1017.01 1017.28 1017.51 1017.60 1017.58 1017.60
1010.84 1011.53 1012.08 1012.40 1012.36 1012.39 1011.59 1010.99 1010.76 1010.40 1010.31 1010.27 1010.33 1011.48 1012.52 1012.71 1012.68 1012.76 1013.36 1013.79 1013.97 1014.07 1014.34 1014.68 1014.85 1015.06 1015.34 1015.62 1015.70 1015.97 1016.04 1016.04 1016.01 1016.21 1016.26 1016.24 1016.40 1016.66 1016.78 1016.74 1016.69 1016.57 1016.72 1016.85 1017.04 1017.22 1017.35 1017.57 1017.62
1010.34 1011.42 1011.90 1012.09 1012.06 1011.90 1011.15 1010.65 1010.13 1010.31 1010.12 1010.16 1010.40 1011.39 1012.50 1012.73 1012.98 1013.19 1013.83 1014.19 1014.32 1014.38 1014.56 1015.00 1015.19 1015.35 1015.70 1015.89 1016.02 1016.09 1016.19 1016.21 1016.32 1016.41 1016.45 1016.53 1016.58 1016.68 1016.72 1016.86 1016.77 1016.68 1016.73 1016.88 1017.01 1017.06 1017.16 1017.39 1017.54
1009.72 1010.98 1011.50 1011.53 1011.63 1011.26 1011.07 1010.50 1009.64 1009.46 1009.90 1010.31 1010.61 1010.95 1011.49 1012.56 1013.06 1013.53 1014.26 1014.64 1014.64 1014.68 1015.03 1015.21 1015.51 1015.78 1015.96 1016.04 1016.15 1016.19 1016.29 1016.35 1016.51 1016.81 1016.71 1016.93 1016.96 1017.02 1016.93 1016.89 1016.81 1016.80 1016.92 1016.93 1016.86 1017.05 1017.10 1017.43 1017.53
1009.72 1010.67 1010.42 1010.27 1010.76 1010.86 1010.78 1010.64 1010.04 1009.93 1010.30 1010.81 1011.05 1011.37 1012.00 1012.69 1013.12 1013.49 1014.13 1014.48 1014.73 1015.02 1015.36 1015.54 1015.73 1015.99 1016.02 1016.10 1016.51 1016.55 1016.56 1016.74 1017.03 1016.99 1017.20 1017.29 1017.14 1017.21 1016.85 1016.76 1016.73 1016.77 1016.89 1016.96 1017.13 1017.43 1017.42 1017.61 1017.76
1009.67 1010.18 1010.26 1010.67 1010.60 1010.65 1010.83 1010.63 1010.28 1010.12 1010.54 1010.61 1010.88 1011.59 1012.33 1012.96 1013.34 1013.45 1013.89 1013.93 1014.24 1014.88 1015.34 1015.59 1015.90 1016.03 1016.14 1016.28 1016.68 1016.73 1016.80 1016.92 1017.16 1017.22 1017.28 1017.29 1017.24 1017.26 1017.01 1016.93 1016.91 1017.07 1017.12 1017.32 1017.38 1017.51 1017.64 1017.87 1018.00
1009.98 1010.19 1010.35 1010.67 1010.78 1010.85 1011.03 1010.79 1010.53 1010.27 1009.96 1010.25 1010.69 1011.13 1012.01 1012.83 1013.15 1013.43 1013.82 1014.17 1014.36 1014.75 1015.18 1015.49 1015.73 1016.06 1016.31 1016.51 1016.75 1016.76 1016.92 1017.04 1017.10 1017.17 1017.30 1017.36 1017.35 1017.11 1017.00 1017.04 1017.15 1017.24 1017.22 1017.23 1017.19 1017.37 1017.58 1017.69 1017.77
1010.49 1010.67 1010.76 1011.03 1011.03 1011.16 1011.29 1010.64 1010.42 1009.67 1009.70 1010.38 1010.98 1011.55 1011.86 1012.39 1012.76 1013.30 1013.61 1014.05 1014.39 1014.79 1015.09 1015.32 1015.79 1016.14 1016.38 1016.57 1016.70 1016.94 1017.05 1017.05 1016.96 1017.10 1017.16 1017.17 1017.05 1017.01 1016.86 1016.95 1017.25 1017.26 1017.34 1016.89 1017.02 1017.47 1017.30 1016.97 1017.11
1010.66 1010.74 1011.18 1011.19 1011.31 1011.33 1011.39 1010.62 1010.21 1009.76 1009.85 1010.67 1011.18 1011.49 1011.74 1012.09 1012.49 1013.13 1013.54 1013.87 1014.17 1014.57 1014.96 1015.19 1015.58 1015.84 1016.26 1016.61 1016.64 1016.84 1017.02 1017.06 1016.87 1016.95 1016.99 1016.85 1016.88 1016.79 1016.75 1016.74 1016.92 1017.03 1017.08 1016.58 1016.96 1016.99 1016.65 1016.68 1016.71
1011.02 1011.03 1011.15 1011.13 1011.19 1011.00 1011.06 1010.63 1010.08 1010.02 1010.06 1010.69 1011.04 1011.46 1011.75 1012.08 1012.53 1012.65 1012.86 1013.45 1013.92 1014.20 1014.74 1015.03 1015.35 1015.64 1016.17 1016.59 1016.55 1016.67 1016.76 1016.67 1016.56 1016.58 1016.61 1016.44 1016.53 1016.52 1016.55 1016.53 1016.66 1016.96 1016.71 1016.43 1016.95 1017.05 1016.96 1016.71 1016.21
1011.38 1011.54 1011.78 1010.93 1011.04 1010.72 1011.04 1010.80 1010.24 1010.18 1010.12 1010.74 1010.98 1011.36 1011.67 1011.73 1011.98 1012.47 1012.83 1013.21 1013.80 1014.29 1014.69 1014.93 1015.25 1015.62 1016.08 1016.40 1016.43 1016.40 1016.48 1016.60 1016.43 1016.39 1016.17 1016.08 1016.17 1016.25 1016.43 1016.19 1016.37 1016.34 1016.34 1016.73 1017.11 1017.57 1017.23 1017.15 1017.19
1012.02 1011.87 1011.58 1011.02 1010.83 1010.60 1010.95 1010.89 1010.15 1010.07 1010.15 1010.24 1010.41 1010.87 1011.27 1011.58 1011.97 1012.25 1012.63 1012.93 1013.44 1013.91 1014.49 1014.90 1015.11 1015.45 1015.89 1015.98 1016.14 1016.28 1016.34 1016.46 1016.38 1016.15 1015.87 1015.77 1015.80 1016.09 1016.43 1016.04 1016.14 1016.15 1016.32 1016.81 1017.07 1017.25 1017.25 1017.80 1017.86
1011.84 1011.83 1011.30 1010.86 1010.49 1010.67 1011.14 1010.99 1010.51 1010.27 1010.31 1010.28 1009.90 1010.15 1010.82 1011.15 1011.38 1011.89 1012.39 1012.85 1013.30 1013.76 1014.19 1014.68 1015.04 1015.27 1015.67 1015.93 1016.16 1016.25 1016.49 1016.45 1016.24 1015.94 1015.69 1015.64 1015.66 1015.80 1016.20 1016.12 1016.19 1016.25 1016.40 1016.78 1017.07 1017.09 1017.36 1017.75 1018.03
1011.11 1011.32 1011.01 1010.46 1010.17 1010.87 1010.93 1011.02 1010.47 1010.28 1010.42 1010.11 1009.88 1010.10 1010.69 1010.91 1011.36 1012.00 1012.41 1012.82 1013.28 1013.68 1014.10 1014.45 1014.96 1015.13 1015.50 1015.94 1016.30 1016.39 1016.59 1016.35 1016.06 1015.74 1015.42 1015.37 1015.61 1015.64 1015.81 1015.94 1016.06 1016.25 1016.37 1016.76 1016.89 1017.13 1017.36 1017.64 1017.98
1010.84 1010.70 1010.31 1010.01 1009.89 1010.85 1011.10 1010.85 1010.34 1010.13 1010.02 1009.97 1009.73 1009.97 1010.37 1010.89 1011.42 1011.97 1012.25 1012.64 1013.01 1013.42 1013.89 1014.34 1014.57 1014.94 1015.25 1015.57 1015.95 1016.18 1016.35 1016.15 1015.74 1015.42 1015.29 1015.34 1015.44 1015.58 1015.80 1015.95 1015.99 1016.12 1016.36 1016.72 1016.95 1017.08 1017.57 1017.99 1017.95
1010.44 1010.00 1009.76 1009.39 1009.77 1011.03 1011.10 1010.71 1010.00 1009.62 1009.56 1009.59 1009.58 1009.63 1009.94 1010.16 1011.11 1011.73 1012.09 1012.42 1012.77 1013.23 1013.51 1013.97 1014.26 1014.61 1015.02 1015.32 1015.71 1016.11 1016.19 1016.29 1016.05 1015.64 1015.42 1015.26 1015.25 1015.40 1015.59 1015.63 1015.81 1016.01 1016.23 1016.48 1016.55 1016.86 1016.98 1017.43 1017.47
1009.28 1008.68 1009.19 1009.63 1010.40 1011.12 1010.97 1011.05 1009.78 1009.38 1009.31 1009.14 1009.22 1009.49 1009.47 1009.94 1010.60 1011.25 1011.66 1012.11 1012.33 1012.63 1013.20 1013.55 1013.93 1014.21 1014.62 1015.11 1015.51 1015.87 1016.10 1016.33 1015.94 1015.67 1015.63 1015.48 1015.25 1015.34 1015.38 1015.44 1015.57 1015.87 1015.99 1016.24 1016.53 1016.56 1016.86 1016.89 1017.20
1007.82 1008.09 1008.74 1009.49 1010.79 1011.51 1011.47 1011.86 1009.54 1009.27 1009.20 1008.55 1008.32 1008.55 1009.03 1009.18 1009.72 1010.43 1010.93 1011.33 1011.68 1012.20 1012.68 1013.19 1013.67 1013.96 1014.29 1014.80 1015.15 1015.51 1015.73 1015.88 1015.73 1015.80 1015.77 1015.68 1015.53 1015.36 1015.18 1015.38 1015.51 1015.77 1015.89 1016.22 1016.25 1016.34 1016.61 1016.68 1016.78
1007.31 1008.46 1009.47 1010.63 1011.72 1012.14 1010.80 1011.52 1009.07 1008.83 1008.02 1007.75 1007.64 1007.83 1008.43 1008.83 1009.20 1009.83 1010.47 1011.16 1011.56 1012.05 1012.51 1012.97 1013.38 1013.64 1013.94 1014.45 1014.81 1015.11 1015.29 1015.33 1015.69 1015.81 1015.81 1015.67 1015.51 1015.17 1014.99 1015.20 1015.38 1015.49 1015.90 1016.13 1016.18 1016.29 1016.43 1016.54 1016.59
1007.57 1009.08 1010.19 1011.57 1012.44 1012.06 1011.11 1010.97 1008.33 1007.28 1006.98 1006.57 1006.91 1007.28 1007.88 1008.42 1008.83 1009.38 1010.14 1010.71 1011.32 1011.64 1012.10 1012.66 1013.00 1013.37 1013.62 1013.90 1014.36 1014.57 1014.66 1014.83 1015.14 1015.33 1015.48 1015.58 1015.52 1015.25 1015.12 1015.24 1015.29 1015.46 1015.54 1015.75 1016.02 1016.21 1016.33 1016.32 1016.30
1007.10 1008.23 1009.59 1010.81 1011.99 1011.58 1010.99 1009.89 1007.29 1006.27 1006.03 1006.31 1006.32 1006.93 1007.58 1008.06 1008.44 1008.89 1009.18 1009.98 1010.66 1011.10 1011.54 1011.93 1012.53 1012.83 1013.29 1013.64 1013.92 1014.27 1014.36 1014.49 1014.62 1014.76 1014.99 1015.16 1015.20 1015.01 1015.08 1015.14 1015.04 1015.15 1015.35 1015.47 1015.81 1016.15 1016.13 1016.17 1016.03
1006.42 1007.52 1007.91 1009.59 1011.12 1011.41 1010.56 1008.77 1006.71 1005.96 1006.02 1006.34 1006.42 1006.87 1007.31 1007.66 1007.72 1008.21 1008.64 1009.22 1009.91 1010.52 1010.94 1011.33 1011.95 1012.38 1012.88 1013.03 1013.20 1013.60 1013.91 1014.14 1014.35 1014.57 1014.74 1014.79 1014.88 1014.84 1014.85 1015.12 1015.22 1015.32 1015.34 1015.52 1015.69 1015.89 1015.98 1015.93 1015.86
1004.83 1006.14 1008.00 1009.68 1010.94 1011.29 1010.39 1009.18 1007.20 1006.18 1005.57 1005.73 1006.28 1006.58 1007.01 1007.52 1007.78 1007.99 1008.44 1008.80 1009.30 1009.71 1010.32 1010.99 1011.47 1011.63 1011.89 1012.31 1012.75 1013.08 1013.46 1013.69 1013.86 1014.22 1014.52 1014.66 1014.68 1014.66 1014.72 1014.80 1015.08 1015.30 1015.36 1015.31 1015.47 1015.52 1015.55 1015.69 1015.59
1005.15 1006.04 1007.68 1009.11 1010.18 1010.76 1010.37 1009.04 1006.27 1005.90 1005.67 1005.56 1005.47 1006.32 1006.53 1006.90 1007.32 1007.49 1007.73 1008.23 1008.62 1009.07 1009.85 1010.35 1010.90 1011.10 1011.49 1011.79 1012.08 1012.46 1012.82 1013.19 1013.56 1013.89 1014.03 1014.22 1014.35 1014.46 1014.52 1014.57 1014.73 1015.07 1015.15 1015.15 1015.32 1015.38 1015.41 1015.41 1015.35
1004.48 1005.64 1006.91 1008.90 1010.22 1010.41 1009.68 1007.76 1005.54 1005.42 1005.44 1005.45 1005.43 1005.42 1005.90 1006.24 1006.34 1006.90 1007.30 1007.82 1008.34 1008.78 1009.33 1009.82 1010.25 1010.65 1010.79 1011.09 1011.64 1011.91 1012.12 1012.58 1012.95 1013.18 1013.49 1013.86 1014.05 1014.17 1014.28 1014.35 1014.44 1014.64 1014.77 1014.74 1014.94 1015.35 1015.39 1015.53 1015.41
Wind_Speed
5 3 1 3 5 5 3 4 6 9 5 5 7 5 7 3 3 4 4 8 13 11 8 10 13 14 13 12 12 11 12 10 10 10 10 10 10 10 10 9 10 10 10 11 11 9 9 9 8
3 5 3 2 5 3 1 1 10 5 7 8 8 5 5 2 3 8 5 9 12 9 6 5 13 13 13 11 11 11 11 10 10 9 10 10 9 10 9 10 9 9 10 10 9 9 8 8 7
4 5 4 4 2 3 3 2 9 8 2 3 5 4 4 2 7 7 6 11 8 6 5 6 12 13 14 12 10 11 10 9 9 7 8 10 11 10 10 10 9 9 10 9 9 8 6 5 5
3 4 4 4 3 2 1 5 12 13 11 5 5 7 4 3 9 7 12 11 7 5 5 9 13 13 12 12 11 10 10 9 8 10 9 8 10 10 10 8 10 10 9 8 9 8 4 4 3
3 2 4 4 3 6 6 11 14 12 14 2 1 3 3 3 13 16 13 9 7 6 4 6 12 11 10 11 11 10 11 9 6 7 7 7 9 9 9 8 8 7 9 7 6 6 5 4 3
3 2 3 1 4 2 9 14 12 11 2 5 4 5 2 7 15 12 11 9 7 6 6 5 11 10 10 9 10 11 11 8 7 7 7 7 8 8 8 7 6 7 7 7 6 5 3 5 5
3 2 2 1 6 3 6 4 7 6 5 2 6 4 3 2 7 11 8 7 7 5 5 4 4 8 10 9 10 11 11 7 5 4 6 7 6 6 5 6 6 6 7 6 5 4 4 3 6
3 3 3 4 4 4 2 2 4 6 3 9 6 5 6 5 9 10 8 6 4 5 5 5 3 5 5 5 8 10 9 6 5 4 6 4 5 7 5 4 5 6 5 4 3 3 1 6 5
3 2 2 5 6 4 4 3 4 5 13 1 3 5 9 14 14 11 8 4 3 3 5 5 5 5 4 3 6 9 8 6 4 7 7 6 2 2 2 4 5 4 3 3 5 3 1 5 7
4 2 6 6 6 2 4 2 8 4 6 2 6 12 15 14 13 13 9 7 5 5 4 5 5 5 5 2 3 4 3 3 4 3 4 3 3 3 4 4 6 3 1 4 6 9 11 8 3
3 2 1 1 5 4 4 2 6 9 5 6 11 15 13 12 9 11 10 12 10 6 4 6 6 5 4 3 3 2 2 2 1 2 2 3 2 3 3 2 1 3 4 3 4 4 3 4 3
2 3 3 3 3 4 4 2 4 7 4 9 15 17 13 11 9 8 8 8 9 9 7 7 6 5 4 3 3 2 2 2 1 1 3 3 2 3 2 0 3 3 2 4 3 2 3 4 4
4 2 6 3 4 8 9 7 4 8 8 11 12 13 14 11 8 5 5 5 7 7 7 7 7 6 5 4 3 3 2 1 2 2 4 3 4 3 2 2 2 2 2 3 1 2 2 4 3
2 7 5 2 2 2 7 4 2 5 11 12 14 14 13 12 10 5 8 8 8 7 7 7 7 6 6 4 4 3 3 3 4 3 4 5 4 3 3 3 4 2 4 3 3 5 4 3 2
3 5 4 4 4 4 4 3 3 0 11 12 15 13 12 11 10 11 10 10 10 8 7 7 7 6 6 5 5 3 4 3 3 3 4 5 4 3 4 4 1 3 4 1 4 4 3 5 1
3 4 3 1 5 2 2 5 4 2 9 14 13 11 13 13 13 9 8 7 7 7 9 7 7 7 6 6 4 3 2 2 4 4 3 5 5 5 5 1 1 3 0 2 2 3 2 4 4
4 2 3 3 6 4 4 4 7 7 6 8 11 15 14 11 8 8 9 9 10 10 8 6 6 7 7 6 4 3 3 3 4 4 3 4 5 6 4 3 0 2 2 3 2 3 2 1 3
5 2 3 3 7 5 5 9 7 5 7 7 6 14 14 11 14 10 9 9 8 8 8 7 5 6 6 3 2 1 1 4 4 4 4 5 4 4 4 3 2 3 3 3 2 2 2 0 2
6 3 2 3 3 5 7 8 13 7 6 7 6 10 11 12 10 7 9 9 8 7 9 8 8 7 4 2 2 1 2 3 3 4 6 4 4 3 2 1 3 4 3 3 3 2 2 1 2
4 5 5 1 3 7 1 12 8 7 6 7 8 8 13 7 8 8 9 10 10 10 10 8 9 7 5 3 2 2 1 3 3 2 3 4 4 3 3 2 1 3 4 4 4 4 2 1 3
4 6 7 5 7 4 1 7 9 6 6 4 6 5 11 16 12 10 10 11 10 10 10 10 10 8 6 6 2 2 1 1 2 2 1 3 4 4 3 3 3 3 3 3 3 4 5 4 1
3 16 11 6 3 2 2 6 6 6 6 7 10 8 9 13 12 12 12 11 12 12 9 8 8 9 7 8 4 5 4 3 3 2 1 2 2 5 3 4 5 3 3 3 2 3 2 3 3
13 13 13 11 4 2 3 2 6 3 6 10 10 13 10 15 16 16 15 15 14 11 11 9 8 7 7 7 6 5 5 4 2 1 3 4 3 6 3 5 4 4 3 2 4 2 3 2 2
1 5 6 6 3 3 4 6 6 6 8 6 9 10 11 12 14 13 12 10 10 9 10 10 10 10 7 7 7 8 8 6 3 3 4 4 3 3 3 4 4 3 3 3 3 4 3 3 3
4 7 2 4 2 8 5 4 12 6 6 7 13 12 10 11 11 12 13 11 8 12 12 11 11 12 9 9 8 8 8 7 7 5 4 4 3 2 4 5 4 3 5 5 3 3 3 4 3
8 10 7 6 5 3 3 6 8 2 3 3 7 9 8 11 9 13 14 13 12 13 13 14 13 13 10 10 10 7 8 5 4 5 4 4 4 4 4 5 5 5 5 4 4 2 3 4 3
6 5 4 7 3 3 4 7 9 5 6 6 7 6 11 12 13 13 14 14 14 12 14 14 13 12 9 11 8 8 8 8 7 7 4 3 4 4 5 5 5 6 6 5 4 3 3 3 3
9 7 3 3 3 4 3 5 6 4 3 2 6 5 6 7 9 9 9 12 12 12 10 9 11 13 13 12 9 9 10 8 7 6 6 6 6 5 5 5 5 5 5 5 5 3 4 4 2
2 1 6 6 5 6 2 8 7 8 6 8 6 7 8 8 9 11 12 10 13 10 10 11 10 11 11 11 11 10 9 9 7 7 6 7 6 6 6 6 6 6 6 5 5 4 5 4 3
7 6 6 7 4 1 4 8 3 6 8 7 8 8 6 9 12 12 12 11 10 11 10 12 11 10 11 10 7 9 9 8 9 9 8 7 7 6 7 6 6 6 6 6 6 6 6 5 5
Wind_Direction
193 195 150 45 58 57 47 328 341 313 347 304 114 110 117 33 169 205 122 138 135 145 156 165 150 144 143 146 140 140 122 128 129 131 132 138 140 132 132 125 120 123 132 129 124 134 133 131 128
186 221 63 63 80 88 324 271 341 311 135 111 80 88 57 59 61 117 97 147 138 142 136 147 153 147 147 150 147 134 130 134 130 141 137 141 144 134 129 127 128 126 124 122 128 127 129 124 126
175 45 69 78 90 166 174 90 19 7 316 282 119 55 100 90 100 144 133 136 127 126 133 158 149 155 154 153 149 142 136 131 139 147 138 147 143 136 135 130 127 120 118 127 129 125 121 122 119
64 20 51 57 359 292 216 298 322 315 301 30 99 73 77 142 153 139 134 134 116 123 135 160 150 156 156 154 153 146 137 142 156 156 160 160 142 135 140 131 139 135 122 132 130 118 119 109 87
53 73 70 108 322 295 299 285 292 287 276 214 16 113 54 21 121 134 138 127 128 133 145 145 153 151 153 155 151 146 140 134 146 157 160 142 129 129 127 125 123 124 119 112 124 121 137 128 85
41 98 72 95 178 244 289 275 282 292 149 146 100 87 55 129 123 135 133 130 132 137 138 154 148 150 149 154 152 146 146 133 149 153 145 121 120 124 121 118 119 114 134 133 132 131 164 147 135
115 85 142 115 165 228 227 241 278 169 153 129 123 85 111 132 120 120 114 116 129 124 118 113 122 153 152 155 155 152 153 131 145 109 115 113 121 126 129 141 148 158 148 148 149 164 166 102 99
143 101 135 203 180 235 216 247 251 257 168 119 147 160 174 184 123 106 90 89 101 123 120 121 110 109 111 141 155 160 159 146 138 83 113 105 94 145 153 163 175 178 156 170 175 204 170 83 86
112 84 235 207 134 229 157 14 120 123 140 16 233 129 130 138 123 112 110 105 115 130 117 120 117 110 121 141 164 156 160 156 104 44 28 49 15 5 12 201 216 180 168 190 208 209 134 124 56
118 146 226 169 149 163 112 236 337 107 143 67 84 94 122 135 144 143 159 168 163 153 147 137 128 137 140 142 102 96 88 77 57 39 23 343 283 270 248 225 219 225 136 74 52 57 63 59 76
157 240 274 74 117 133 135 281 343 130 185 225 157 142 147 151 165 164 172 178 175 154 147 150 155 154 155 156 127 151 113 96 81 18 358 297 290 284 279 256 79 78 87 64 50 77 86 87 78
349 15 43 85 110 75 356 309 326 236 231 166 162 160 155 171 176 176 174 168 163 168 165 161 161 162 187 168 150 185 133 151 142 256 284 271 282 279 342 26 109 101 148 145 162 177 118 113 111
22 348 54 13 129 112 306 286 259 248 177 153 154 166 169 179 181 172 175 168 157 169 161 174 162 175 181 168 164 179 163 187 201 245 275 269 268 250 216 120 174 151 212 203 173 115 55 41 21
238 86 113 127 135 163 201 271 263 56 135 152 175 185 183 187 187 156 166 182 180 168 171 166 174 173 169 171 188 188 180 220 249 252 250 260 234 224 209 213 197 182 230 239 23 50 14 346 339
39 64 0 175 175 202 226 319 152 151 159 175 186 192 187 198 193 200 192 183 174 183 160 177 168 164 173 191 198 209 221 229 257 269 246 237 197 224 221 207 131 178 218 194 75 59 6 324 261
97 71 42 158 183 153 122 231 251 193 132 189 194 195 200 197 200 200 185 168 163 160 171 169 181 162 178 188 201 233 245 244 249 251 268 220 198 194 242 174 294 174 197 81 81 136 185 304 352
12 138 160 293 219 135 137 233 249 192 147 181 191 193 204 199 193 193 179 174 173 172 164 174 176 164 184 190 198 217 278 239 251 276 261 255 200 182 227 128 283 158 164 144 166 216 179 166 271
228 183 246 246 212 223 154 263 285 256 199 222 209 189 193 188 201 190 178 171 172 167 175 165 179 177 185 188 184 166 238 255 262 261 259 239 220 191 190 146 142 153 124 115 169 188 188 81 192
143 158 86 239 211 179 219 246 257 242 239 196 188 179 183 195 192 179 182 173 165 169 170 179 171 198 150 141 164 203 235 264 278 254 273 237 206 197 207 327 114 159 163 146 168 151 145 97 144
140 154 230 286 220 172 189 260 253 232 234 210 204 177 190 161 182 175 172 178 183 181 179 178 192 182 180 161 163 159 153 254 257 285 261 195 195 203 212 194 225 139 131 143 162 169 136 146 199
170 204 199 192 146 127 41 282 227 230 206 178 238 208 186 178 182 183 179 187 182 190 187 188 192 191 183 175 136 100 97 327 287 280 302 222 214 227 228 204 206 169 127 173 184 154 172 158 195
228 204 199 128 88 270 139 271 278 195 213 202 190 210 177 181 183 188 183 186 189 197 187 190 195 190 193 167 163 165 179 213 242 228 283 249 280 237 215 222 209 181 150 175 169 165 148 130 168
234 164 200 173 123 48 208 319 270 113 219 237 206 190 201 183 180 190 190 194 195 187 185 190 193 198 192 169 180 183 198 212 215 239 257 248 273 264 229 218 200 196 200 178 192 166 183 199 147
41 108 56 59 80 309 203 166 269 188 208 225 214 195 193 186 192 194 192 190 189 182 188 188 190 212 188 184 186 195 209 228 207 213 234 248 236 258 223 217 194 212 230 193 211 192 206 205 217
94 66 15 9 24 225 3 131 249 249 216 212 192 194 189 193 182 180 180 188 176 186 187 193 193 214 212 189 194 206 217 219 211 216 207 216 205 220 228 205 187 197 231 219 201 225 224 204 203
180 154 161 199 203 260 345 230 258 266 267 176 153 182 171 190 186 192 189 190 189 190 193 188 198 209 197 200 205 206 219 224 223 213 194 200 206 215 209 219 205 201 230 215 206 243 235 189 170
183 187 193 112 19 97 238 291 306 334 126 136 139 153 191 197 201 192 192 193 193 194 197 195 195 207 208 212 203 205 209 205 215 216 206 218 212 230 230 213 218 209 217 218 198 235 239 200 169
146 166 87 11 149 240 270 289 240 279 193 250 151 180 197 206 216 211 188 196 197 200 191 186 201 199 206 200 198 212 218 215 209 203 205 206 221 222 222 237 212 217 227 206 209 232 240 217 201
82 222 55 121 124 161 179 263 216 210 214 224 243 169 205 214 208 202 206 192 198 194 191 195 196 201 202 204 205 202 205 206 198 212 212 204 209 222 216 215 219 201 221 214 205 214 237 228 232
151 177 134 124 227 177 158 271 253 211 204 176 244 258 195 206 205 198 194 189 183 196 186 194 203 211 210 201 199 204 212 196 201 212 207 194 209 207 218 209 221 220 221 203 187 198 212 213 212